Time,TemperatureF,DewpointF,PressureIn,WindDirection,WindDirectionDegrees,WindSpeedMPH,WindSpeedGustMPH,Humidity,HourlyPrecipIn,Conditions,Clouds,dailyrainin,SoftwareType,DateUTC
2013-08-25 00:22:00,58.0,-99.9,-100.00,North,-999,-999.0,-999.0,-999,0.00,,,0.00,,2013-08-25 06:22:00,
2013-08-25 00:32:00,58.0,-99.9,-100.00,North,-999,-999.0,-999.0,-999,0.00,,,0.00,,2013-08-25 06:32:00,
2013-08-25 00:43:00,58.0,-99.9,-100.00,North,-999,-999.0,-999.0,-999,0.00,,,0.00,,2013-08-25 06:43:00,
2013-08-25 01:12:00,57.0,-99.9,-100.00,North,-999,-999.0,-999.0,-999,0.00,,,-99.99,,2013-08-25 07:12:00,
2013-08-25 01:22:00,57.0,-99.9,-100.00,North,-999,-999.0,-999.0,-999,0.00,,,-99.99,,2013-08-25 07:22:00,
2013-08-25 01:32:00,57.0,-99.9,-100.00,North,-999,-999.0,-999.0,-999,0.00,,,-99.99,,2013-08-25 07:32:00,
2013-08-25 01:42:00,57.0,-99.9,-100.00,North,-999,-999.0,-999.0,-999,0.00,,,-99.99,,2013-08-25 07:42:00,
2013-08-25 03:22:00,60.0,-99.9,-100.00,North,-999,-999.0,-999.0,-999,-99.99,,,0.00,,2013-08-25 09:22:00,
2013-08-25 03:34:00,60.0,-99.9,-100.00,North,-999,-999.0,-999.0,-999,-99.99,,,0.00,,2013-08-25 09:34:00,
2013-08-25 03:44:00,60.0,-99.9,-100.00,North,-999,-999.0,-999.0,-999,-99.99,,,0.00,,2013-08-25 09:44:00,
2013-08-25 04:13:00,60.0,-99.9,-100.00,North,-999,-999.0,-999.0,-999,0.00,,,-99.99,,2013-08-25 10:13:00,
2013-08-25 04:23:00,60.0,-99.9,-100.00,North,-999,-999.0,-999.0,-999,0.00,,,-99.99,,2013-08-25 10:23:00,
2013-08-25 04:33:00,60.0,-99.9,-100.00,North,-999,-999.0,-999.0,-999,0.00,,,-99.99,,2013-08-25 10:33:00,
2013-08-25 04:42:00,60.0,-99.9,-100.00,North,-999,-999.0,-999.0,-999,0.00,,,-99.99,,2013-08-25 10:42:00,
2013-08-25 05:22:00,61.0,-99.9,-100.00,North,-999,-999.0,-999.0,-999,0.00,,,-99.99,,2013-08-25 11:22:00,
2013-08-25 05:33:00,61.0,-99.9,-100.00,North,-999,-999.0,-999.0,-999,0.00,,,-99.99,,2013-08-25 11:33:00,
2013-08-25 05:42:00,61.0,-99.9,-100.00,North,-999,-999.0,-999.0,-999,0.00,,,-99.99,,2013-08-25 11:42:00,
2013-08-25 06:52:00,59.0,-99.9,-100.00,North,-999,-999.0,-999.0,-999,0.00,,,-99.99,,2013-08-25 12:52:00,
2013-08-25 07:12:00,57.0,-99.9,-100.00,North,-999,-999.0,-999.0,-999,-99.99,,,-99.99,,2013-08-25 13:12:00,
2013-08-25 07:22:00,57.0,-99.9,-100.00,North,-999,-999.0,-999.0,-999,-99.99,,,-99.99,,2013-08-25 13:22:00,
2013-08-25 07:32:00,57.0,-99.9,-100.00,North,-999,-999.0,-999.0,-999,-99.99,,,-99.99,,2013-08-25 13:32:00,
2013-08-25 07:42:00,57.0,-99.9,-100.00,North,-999,-999.0,-999.0,-999,-99.99,,,-99.99,,2013-08-25 13:42:00,
2013-08-25 09:23:00,58.0,-99.9,-100.00,North,-999,-999.0,-999.0,-999,-99.99,,,0.00,,2013-08-25 15:23:00,
2013-08-25 09:35:00,58.0,-99.9,-100.00,North,-999,-999.0,-999.0,-999,-99.99,,,0.00,,2013-08-25 15:35:00,
2013-08-25 09:44:00,58.0,-99.9,-100.00,North,-999,-999.0,-999.0,-999,-99.99,,,0.00,,2013-08-25 15:44:00,
2013-08-25 11:12:00,71.0,-99.9,-100.00,North,-999,-999.0,-999.0,-999,-99.99,,,0.00,,2013-08-25 17:12:00,
2013-08-25 11:23:00,71.0,-99.9,-100.00,North,-999,-999.0,-999.0,-999,-99.99,,,0.00,,2013-08-25 17:23:00,
2013-08-25 11:34:00,71.0,-99.9,-100.00,North,-999,-999.0,-999.0,-999,-99.99,,,0.00,,2013-08-25 17:34:00,
2013-08-25 11:43:00,71.0,-99.9,-100.00,North,-999,-999.0,-999.0,-999,-99.99,,,0.00,,2013-08-25 17:43:00,
2013-08-25 12:12:00,75.0,-99.9,-100.00,North,-999,-999.0,-999.0,-999,0.00,,,0.00,,2013-08-25 18:12:00,
2013-08-25 12:22:00,75.0,-99.9,-100.00,North,-999,-999.0,-999.0,-999,0.00,,,0.00,,2013-08-25 18:22:00,
2013-08-25 12:32:00,75.0,-99.9,-100.00,North,-999,-999.0,-999.0,-999,0.00,,,0.00,,2013-08-25 18:32:00,
2013-08-25 12:43:00,75.0,-99.9,-100.00,North,-999,-999.0,-999.0,-999,0.00,,,0.00,,2013-08-25 18:43:00,
2013-08-25 13:22:00,77.0,-99.9,-100.00,North,-999,-999.0,-999.0,-999,0.00,,,-99.99,,2013-08-25 19:22:00,
2013-08-25 13:32:00,77.0,-99.9,-100.00,North,-999,-999.0,-999.0,-999,0.00,,,-99.99,,2013-08-25 19:32:00,
2013-08-25 13:42:00,77.0,-99.9,-100.00,North,-999,-999.0,-999.0,-999,0.00,,,-99.99,,2013-08-25 19:42:00,
2013-08-25 14:13:00,80.0,-99.9,-100.00,North,-999,-999.0,-999.0,-999,0.00,,,-99.99,,2013-08-25 20:13:00,
2013-08-25 14:24:00,80.0,-99.9,-100.00,North,-999,-999.0,-999.0,-999,0.00,,,-99.99,,2013-08-25 20:24:00,
2013-08-25 14:33:00,80.0,-99.9,-100.00,North,-999,-999.0,-999.0,-999,0.00,,,-99.99,,2013-08-25 20:33:00,
2013-08-25 14:43:00,80.0,-99.9,-100.00,North,-999,-999.0,-999.0,-999,0.00,,,-99.99,,2013-08-25 20:43:00,
2013-08-25 15:22:00,81.0,-99.9,-100.00,North,-999,-999.0,-999.0,-999,0.01,,,0.01,,2013-08-25 21:22:00,
2013-08-25 15:34:00,81.0,-99.9,-100.00,North,-999,-999.0,-999.0,-999,0.01,,,0.01,,2013-08-25 21:34:00,
2013-08-25 15:43:00,81.0,-99.9,-100.00,North,-999,-999.0,-999.0,-999,0.01,,,0.01,,2013-08-25 21:43:00,
2013-08-25 17:23:00,83.0,-99.9,-100.00,North,-999,-999.0,-999.0,-999,-99.99,,,-99.99,,2013-08-25 23:23:00,
2013-08-25 17:34:00,83.0,-99.9,-100.00,North,-999,-999.0,-999.0,-999,-99.99,,,-99.99,,2013-08-25 23:34:00,
2013-08-25 17:43:00,83.0,-99.9,-100.00,North,-999,-999.0,-999.0,-999,-99.99,,,-99.99,,2013-08-25 23:43:00,
2013-08-25 19:11:00,79.0,-99.9,-100.00,North,-999,-999.0,-999.0,-999,-99.99,,,0.00,,2013-08-26 01:11:00,
2013-08-25 19:22:00,79.0,-99.9,-100.00,North,-999,-999.0,-999.0,-999,-99.99,,,0.00,,2013-08-26 01:22:00,
2013-08-25 19:32:00,79.0,-99.9,-100.00,North,-999,-999.0,-999.0,-999,-99.99,,,0.00,,2013-08-26 01:32:00,
2013-08-25 19:42:00,79.0,-99.9,-100.00,North,-999,-999.0,-999.0,-999,-99.99,,,0.00,,2013-08-26 01:42:00,
2013-08-25 21:22:00,71.0,-99.9,-100.00,North,-999,-999.0,-999.0,-999,-99.99,,,0.00,,2013-08-26 03:22:00,
2013-08-25 21:34:00,71.0,-99.9,-100.00,North,-999,-999.0,-999.0,-999,-99.99,,,0.00,,2013-08-26 03:34:00,
2013-08-25 21:44:00,71.0,-99.9,-100.00,North,-999,-999.0,-999.0,-999,-99.99,,,0.00,,2013-08-26 03:44:00,
2013-08-25 22:24:00,71.0,-99.9,-100.00,North,-999,-999.0,-999.0,-999,0.01,,,0.01,,2013-08-26 04:24:00,
2013-08-25 22:34:00,71.0,-99.9,-100.00,North,-999,-999.0,-999.0,-999,0.01,,,0.01,,2013-08-26 04:34:00,
2013-08-25 22:44:00,71.0,-99.9,-100.00,North,-999,-999.0,-999.0,-999,0.01,,,0.01,,2013-08-26 04:44:00,
2013-08-25 23:23:00,65.0,-99.9,-100.00,North,-999,-999.0,-999.0,-999,0.00,,,0.01,,2013-08-26 05:23:00,
2013-08-25 23:34:00,65.0,-99.9,-100.00,North,-999,-999.0,-999.0,-999,0.00,,,0.01,,2013-08-26 05:34:00,
2013-08-25 23:44:00,65.0,-99.9,-100.00,North,-999,-999.0,-999.0,-999,0.00,,,0.01,,2013-08-26 05:44:00,